Weather History for KBFD - May, 2014

Change the Weather History Date:

Thursday, May 15, 2014

  Actual Average Record
Temperature  
Mean Temperature 60 °F 53 °F  
Max Temperature 69 °F 65 °F 85 °F (1962)
Min Temperature 51 °F 40 °F 23 °F (1977)
Degree Days  
Heating Degree Days 5 8  
Month to date heating degree days 152 144  
Since 1 July heating degree days 7603 7395  
Cooling Degree Days 0 0  
Month to date cooling degree days 14 0  
Year to date cooling degree days 16 2  
Growing Degree Days 11 (Base 50)    
Moisture  
Dew Point 56 °F    
Average Humidity 77    
Maximum Humidity 90    
Minimum Humidity 63    
Precipitation  
Precipitation 0.52 in 0.14 in 1.30 in (2011)
Month to date precipitation 3.11 1.92  
Year to date precipitation 12.90 14.48  
Sea Level Pressure  
Sea Level Pressure 29.96 in    
Wind  
Wind Speed 11 mph (South)    
Max Wind Speed 20 mph    
Max Gust Speed 32 mph    
Visibility 7 miles    
Events Rain    
T = Trace of Precipitation, MM = Missing Value Source: NWS Daily Summary

Daily Weather History Graph

Daily Weather History Graph

Search for Another Location

Airport or City:

Trip Planner

Search our weather history database for the weather conditions in past years. The results will help you decide how hot, cold, wet, or windy it might be!

Date:

Astronomy

May. 15, 2014 Rise Set
Actual Time 5:54 AM EDT 8:27 PM EDT
Civil Twilight 5:22 AM EDT 8:59 PM EDT
Nautical Twilight 4:43 AM EDT 9:39 PM EDT
Astronomical Twilight 3:58 AM EDT 10:24 PM EDT
Moon 9:33 PM EDT (5/15) 6:40 AM EDT (5/15)
Length of Visible Light 15h 36m
Length of Day
14h 33m
Full, 99% of the Moon is Illuminated
May 15
Full
May 21
Last Quarter
May 28
New
Jun 5
First Quarter
Jun 13
Full

Hourly Weather History & Observations

Time (EDT) Temp. Dew Point Humidity Pressure Visibility Wind Dir Wind Speed Gust Speed Precip Events Conditions
12:04 AM 62.1 °F 57.0 °F 84% 30.09 in 9.0 mi SE 10.4 mph - N/A   Overcast
12:53 AM 62.1 °F 57.0 °F 84% 30.04 in 8.0 mi SE 12.7 mph 19.6 mph N/A   Overcast
1:25 AM 62.1 °F 57.0 °F 84% 30.07 in 8.0 mi SSE 13.8 mph 20.7 mph N/A   Overcast
1:53 AM 62.1 °F 57.0 °F 84% 30.03 in 8.0 mi SSE 11.5 mph 19.6 mph N/A   Overcast
2:53 AM 62.1 °F 57.0 °F 84% 30.01 in 8.0 mi South 12.7 mph 20.7 mph N/A   Overcast
3:53 AM 62.1 °F 57.9 °F 86% 30.01 in 7.0 mi SSE 11.5 mph 17.3 mph N/A   Overcast
4:38 AM 63.0 °F 57.9 °F 84% 30.03 in 8.0 mi SSE 9.2 mph 19.6 mph N/A   Overcast
4:53 AM 63.0 °F 57.9 °F 84% 30.00 in 8.0 mi SSE 9.2 mph 20.7 mph N/A   Overcast
5:53 AM 62.1 °F 57.0 °F 84% 29.98 in 9.0 mi SSE 13.8 mph 21.9 mph N/A   Overcast
6:18 AM 63.0 °F 57.0 °F 81% 30.02 in 8.0 mi SSE 10.4 mph 21.9 mph N/A   Overcast
6:33 AM 63.0 °F 57.0 °F 81% 30.01 in 8.0 mi SSE 12.7 mph 23.0 mph N/A   Overcast
6:40 AM 63.0 °F 57.0 °F 81% 30.01 in 8.0 mi SSE 10.4 mph 23.0 mph N/A   Overcast
6:53 AM 63.0 °F 57.0 °F 81% 29.97 in 8.0 mi SSE 17.3 mph 26.5 mph N/A   Overcast
7:53 AM 64.9 °F 57.0 °F 75% 29.96 in 10.0 mi SSE 16.1 mph 24.2 mph N/A   Overcast
8:53 AM 66.0 °F 55.9 °F 70% 29.96 in 10.0 mi SSE 12.7 mph 29.9 mph N/A   Mostly Cloudy
9:15 AM 66.9 °F 55.9 °F 68% 29.98 in 10.0 mi South 13.8 mph 25.3 mph N/A   Mostly Cloudy
9:53 AM 68.0 °F 55.9 °F 65% 29.94 in 10.0 mi SSE 12.7 mph 28.8 mph N/A   Overcast
10:53 AM 68.0 °F 54.0 °F 61% 29.93 in 10.0 mi SSE 13.8 mph 29.9 mph 0.00 in Rain Light Rain
11:53 AM 69.1 °F 53.1 °F 57% 29.94 in 10.0 mi SSE 13.8 mph 25.3 mph 0.00 in   Overcast
12:53 PM 66.9 °F 55.0 °F 66% 29.92 in 10.0 mi Variable 5.8 mph - 0.00 in   Overcast
1:53 PM 64.9 °F 57.9 °F 78% 29.92 in 4.0 mi SSE 10.4 mph - 0.02 in Rain Light Rain
3:53 PM 64.0 °F 60.1 °F 87% 29.92 in 4.0 mi SSE 8.1 mph 19.6 mph 0.02 in Rain Light Rain
4:07 PM 64.0 °F 59.0 °F 84% 29.94 in 5.0 mi South 10.4 mph 21.9 mph 0.01 in Rain Light Rain
4:14 PM 64.0 °F 60.1 °F 87% 29.94 in 4.0 mi SSE 8.1 mph 21.9 mph 0.01 in Rain Light Rain
4:53 PM 64.0 °F 59.0 °F 84% 29.91 in 10.0 mi SSE 11.5 mph 19.6 mph 0.02 in   Mostly Cloudy
5:53 PM 63.0 °F 57.9 °F 84% 29.88 in 7.0 mi SSE 11.5 mph 21.9 mph 0.01 in Rain Light Rain
6:53 PM 63.0 °F 57.9 °F 84% 29.88 in 10.0 mi South 8.1 mph - 0.02 in   Overcast
7:53 PM 62.1 °F 57.9 °F 86% 29.89 in 4.0 mi Variable 6.9 mph - 0.05 in Rain Rain
8:53 PM 61.0 °F 57.9 °F 90% 29.88 in 4.0 mi SSE 6.9 mph - 0.05 in Rain Light Rain
9:02 PM 61.0 °F 57.9 °F 90% 29.91 in 9.0 mi Variable 5.8 mph - 0.00 in Rain Light Rain
9:27 PM 61.0 °F 59.0 °F 93% 29.92 in 5.0 mi WSW 6.9 mph - 0.01 in Rain Light Rain
9:30 PM 61.0 °F 57.9 °F 90% 29.91 in 2.5 mi WNW 8.1 mph - 0.04 in Rain Light Rain
9:37 PM 60.1 °F 55.9 °F 86% 29.92 in 3.0 mi WSW 11.5 mph 16.1 mph 0.05 in Rain Light Rain
9:46 PM 57.9 °F 55.0 °F 90% 29.94 in 4.0 mi West 10.4 mph 19.6 mph 0.07 in Rain Rain
9:53 PM 57.0 °F 54.0 °F 89% 29.93 in 2.0 mi West 10.4 mph 18.4 mph 0.12 in Rain Heavy Rain
10:03 PM 55.0 °F 52.0 °F 89% 29.94 in 4.0 mi WNW 15.0 mph 21.9 mph 0.03 in Rain Light Rain
10:31 PM 53.1 °F 50.0 °F 89% 29.94 in 9.0 mi West 5.8 mph - 0.03 in Rain Light Rain
10:49 PM 53.6 °F 50.0 °F 88% 29.94 in 8.0 mi West 6.9 mph - 0.03 in Rain Light Rain
10:53 PM 53.1 °F 50.0 °F 89% 29.92 in 8.0 mi West 5.8 mph - 0.04 in Rain Light Rain
11:01 PM 53.1 °F 50.0 °F 89% 29.94 in 9.0 mi West 6.9 mph - 0.00 in Rain Light Rain
11:27 PM 53.1 °F 50.0 °F 89% 29.95 in 5.0 mi WSW 6.9 mph - 0.00 in Rain Light Rain
11:53 PM 52.0 °F 48.9 °F 89% 29.92 in 7.0 mi Variable 4.6 mph - 0.02 in Rain Light Rain